• MPC Preparation (Info)

  • MPEC 2015-C05 : 2015 BR514

    The following Minor Planet Electronic Circular may be linked-to from your own Web pages, but must not otherwise be redistributed electronically.

    A form allowing access to any MPEC is at the bottom of this page.


    Read MPEC 2015-C04 Read MPEC 2015-C06


    M.P.E.C. 2015-C05                                Issued 2015 Feb. 2, 14:07 UT
    
         The Minor Planet Electronic Circulars contain information on unusual
             minor planets and routine data on comets.  They are published
       on behalf of Commission 20 of the International Astronomical Union by the
              Minor Planet Center, Smithsonian Astrophysical Observatory,
                              Cambridge, MA 02138, U.S.A.
    
                 Prepared using the Tamkin Foundation Computer Network
    
                                  MPC@CFA.HARVARD.EDU
                URL https://www.minorplanetcenter.net/    ISSN 1523-6714
    
                                      2015 BR514
    
    Observations:
         K15Bp4R* C2015 01 29.43026 09 12 23.538-26 30 18.56         19.7 iLEC005F51
         K15Bp4R  C2015 01 29.44085 09 12 22.532-26 30 44.03         19.7 iLEC005F51
         K15Bp4R  C2015 01 29.45147 09 12 21.509-26 31 09.49         19.7 iLEC005F51
         K15Bp4R  C2015 01 29.46211 09 12 20.491-26 31 35.00         19.8 iLEC005F51
         K15Bp4R  C2015 01 30.33436709 11 00.54 -27 06 17.4          19.3 RtEC005W86
         K15Bp4R  C2015 01 30.33590609 11 00.39 -27 06 21.1          19.4 RtEC005W86
         K15Bp4R  C2015 01 30.33739309 11 00.25 -27 06 24.6          19.4 RtEC005W86
         K15Bp4R  C2015 01 30.33887809 11 00.10 -27 06 28.3          19.3 RtEC005W86
         K15Bp4R  C2015 01 30.34038309 10 59.95 -27 06 31.9          19.5 RtEC005W86
         K15Bp4R  C2015 01 30.34187009 10 59.80 -27 06 35.3          19.4 RtEC005W86
         K15Bp4R  C2015 01 30.34342409 10 59.66 -27 06 38.9          19.3 RtEC005W86
         K15Bp4R  C2015 01 30.34491209 10 59.52 -27 06 42.5          19.4 RtEC005W86
         K15Bp4R  C2015 01 30.34640809 10 59.36 -27 06 46.1          19.4 RtEC005W86
         K15Bp4R  C2015 01 30.34789809 10 59.22 -27 06 49.8          19.3 RtEC005W86
         K15Bp4R |C2015 01 31.29189 09 09 29.84 -27 44 50.4          18.2 VuEC005807
         K15Bp4R |C2015 01 31.29596 09 09 29.50 -27 45 00.6          19.4 VuEC005807
         K15Bp4R |C2015 01 31.30002 09 09 29.08 -27 45 10.3          19.8 VuEC005807
         K15Bp4R |C2015 02 01.18113 09 08 02.67 -28 20 49.8          19.7 VuEC005807
         K15Bp4R |C2015 02 01.18735 09 08 02.02 -28 21 04.9          19.8 VuEC005807
         K15Bp4R |C2015 02 01.19383 09 08 01.30 -28 21 20.7          20.0 VuEC005807
         K15Bp4R |C2015 02 02.13768 09 06 24.49 -28 59 41.2          19.8 VuEC005807
         K15Bp4R |C2015 02 02.14230 09 06 23.97 -28 59 52.5          19.8 VuEC005807
         K15Bp4R |C2015 02 02.14691 09 06 23.42 -29 00 03.4          19.8 VuEC005807
    
    Observer details:
    807 Cerro Tololo.  Observers T. Linder, R. Holmes.  Measurers T. Linder,
        R. Holmes, M. Williams.  0.41-m f/11 Ritchey-Chretien + CCD.
    F51 Pan-STARRS 1, Haleakala.  Observers B. Gibson, T. Goggia, N. Primak,
        A. Schultz, M. Willman.  Measurers K. Chambers, S. Chastel, L. Denneau,
        H. Flewelling, M. Huber, E. Magnier, E. Schunova, R. Wainscoat, C. Waters,
        R. Weryk.  1.8-m Ritchey-Chretien + CCD.
    W86 Cerro Tololo-LCOGT B.  Observer T. Lister.  1.0-m f/8 Ritchey-Chretien
        + CCD.
    
    Orbital elements:
    2015 BR514                                          PHA, Earth MOID = 0.0444 AU
    Epoch 2014 Dec. 9.0 TT = JDT 2457000.5                  MPC
    M 318.03913              (2000.0)            P               Q
    n   0.29376746     Peri.  327.61081     -0.62838178     +0.71153227
    a   2.2411293      Node   261.40326     -0.62863738     -0.70255225
    e   0.5965043      Incl.   18.54140     -0.45820452     -0.01192330
    P   3.36           H   19.0           G   0.15           U   8
    Residuals in seconds of arc
    150129 F51  0.0   0.0     150130 W86  0.0   0.2-    150131 807  0.1+  0.1+
    150129 F51  0.1+  0.0     150130 W86  0.1-  0.0     150201 807  0.1+  0.1-
    150129 F51  0.0   0.0     150130 W86  0.1+  0.1+    150201 807  0.4+  0.1-
    150129 F51  0.1-  0.0     150130 W86  0.1+  0.0     150201 807  0.0   0.1-
    150130 W86  0.0   0.0     150130 W86  0.1-  0.0     150202 807  0.2+  0.2-
    150130 W86  0.0   0.0     150130 W86  0.0   0.2-    150202 807  0.1+  0.1-
    150130 W86  0.1+  0.0     150131 807  0.9-  0.4+    150202 807  0.4-  0.3+
    150130 W86  0.0   0.2-    150131 807  0.2+  0.0
    
    Ephemeris:
    2015 BR514               a,e,i = 2.24, 0.60, 19                  q = 0.9043
    Date    TT    R. A. (2000) Decl.     Delta      r     Elong.  Phase     V
    2015 01 03    09 30 45.1 -11 02 09   0.8958  1.6929   128.5    27.0    21.1
    ...
    2015 01 18    09 25 03.6 -19 14 30   0.7106  1.5672   134.7    26.5    20.4
    ...
    2015 01 26    09 17 04.4 -24 14 47   0.6291  1.4993   135.4    27.4    20.1
    ...
    2015 02 01    09 08 20.7 -28 13 28   0.5763  1.4481   134.4    29.1    19.9
    2015 02 02    09 06 38.5 -28 54 04   0.5681  1.4395   134.0    29.5    19.8
    2015 02 03    09 04 51.9 -29 34 50   0.5602  1.4310   133.7    29.9    19.8
    ...
    2015 02 09    08 52 34.8 -33 41 31   0.5165  1.3798   130.7    32.8    19.6
    ...
    2015 02 17    08 31 38.1 -39 07 03   0.4680  1.3120   124.7    38.3    19.5
    ...
    2015 03 04    07 37 57.6 -48 17 17   0.4003  1.1886   109.9    51.7    19.3
    
    A. U. Tomatic                (C) Copyright 2015 MPC           M.P.E.C. 2015-C05
    

    Read MPEC 2015-C04 Read MPEC 2015-C06


    MPEC number:

    Enter an MPEC number in one of the following forms:

    • 1997-B01 (the full form)
    • J97B01 (the packed version of the full form)
    • B01 (the abbreviated form)